Погода в Понти ди Лиме

Португалия     41°46′03″N   8°34′38″W
темп.,
°C
ветер,
м/с
пор.,
м/с
влажн.,
%
обл.,
%
осадки,
мм/ч
давл.,
гПа
погр.,
м
15 августа, пн
пн1501:00+13св11930 0.0 101511
04:00+12всв11930 0.0 101411
07:00+12св11910 0.0 101410
10:00+21зюз11525 0.0 1014598
13:00+26зюз343313 0.0 10121653
16:00+26зюз45355 0.0 10111401
19:00+21юз345593 0.0 1011925
22:00+15ююв229873 0.1 101231
16 августа, вт
вт1601:00+16ююз1299100 3.9 1011103
04:00+14зсз119816 0.5 101114
07:00+14з119721 0.6 101219
10:00+17з238055 0.3 1013714
13:00+20сз346567 1.0 10141199
16:00+21ссз466043 0.6 10141318
19:00+18ссз367285 0.8 1015980
22:00+15ссз229262 0.1 101771
17 августа, ср
ср1701:00+14ссз219625 0.2 101627
04:00+14ссз229384 0.0 101693
07:00+13с22973 0.1 101645
10:00+18с24661 0.0 1017754
13:00+24ссз45350 0.0 10162055
16:00+25ссз67401 0.0 10151719
19:00+23с57440 0.0 10151488
22:00+16с35764 0.0 1018156
18 августа, чт
чт1801:00+13ссв35925 0.0 101899
04:00+12ссв34955 0.0 101882
07:00+11ссв34940 0.0 101984
10:00+21ссв24461 0.0 1019631
13:00+28ссз24234 0.0 10181690
16:00+31с34190 0.0 10162389
19:00+28с57305 0.0 1016848
22:00+19св35525 0.0 101989
19 августа, пт
пт1901:00+16св34680 0.0 101968
04:00+16св22660 0.0 101934
07:00+16св32630 0.0 101941
10:00+27всв11340 0.0 1020507
13:00+34зюз11210 0.0 10191838
16:00+35зсз32200 0.0 10162428
19:00+31сз45280 0.0 1016648
22:00+22ссв32520 0.0 101837